Showing default

ARSAT 1, 40272

Orbit data source: Space-Track

ARSAT 1, 40272 is a payload satellite owned by AR-SAT (AR) in GEO that was launched on Thu, 16 Oct 2014 UTC via an ARIANE 5ECA launch vehicle from the French Guiana (FRGUI). Payload-class satellites include a variety of spacecraft equipped with specific instruments for various scientific and technological missions. These include communications satellites like Starlink; space stations such as the ISS; scientific satellites like the Hubble; Earth observation satellites from companies like Planet Labs, Umbra, and HawkEye 360; GPS; miniature CubeSats for education and research; and military/defense satellites.

Loading next visibility...
Identifier
40272, 2014-062B
Orbit
GEO
Country
Flag of UnknownUnknown / ARGN
Related business
Manufacturer
INVAP
Mission
Operational Commercial Communications
Bus & Motor
ARSAT-BUS, S400
Mass
2,983 kg wet, ~2,000 kg dry
Launch date (UTC)
2014-10-16 (11 years ago)
Launch vehicle
ARIANE 5ECA
Launch site
French Guiana (FRGUI)
Object type
Payload
Rocket body
Debris
Shape & HBR
Box + 2 Pan, 8.2 m
Radar Cross Section
17.571 m², Large (>1 m²)

Expand to show TLE details & history
Last TLE update: 6 hours ago

TLE from 6 hours ago
0 ARSAT 1
1 40272U 14062B   26062.78623512  .00000000  00000-0  00000+0 0  9997
2 40272   0.0205 117.3856 0001488 221.9276  33.4836  1.00267804 41566
Epoch: 2026-03-03T18:52Z
TLE epoch observation values (Epoch: 2026-03-03T18:52:10.714Z)
Latitude
-0.03948°
Longitude
-71.76439°
Altitude
35,781.948 km
Speed
3.075 km/s
True Right ascension
00h 51m 21s
True Declination
0° 02' 22"
Sunlit
Object was in daylight at epoch
Visualization orbit readout
Latitude
Unknown
Longitude
Unknown
Altitude
Unknown
Speed
Unknown
Apparent Right ascension
Unknown
Apparent Declination
Unknown
Sunlit
N/A
Visualization observer readout
Local Sidereal Time
04:50:31
Azimuth
Unknown
Elevation
Unknown
Doppler factor
Unknown
Orbital elements
Apogee altitude
35,795.056 km
Perigee altitude
35,782.507 km
Semi-major axis
42,166.918 km
Eccentricity
0.00015
Inclination
0.0205°
RAAN
117.3856°
Arg. of periapsis
221.9276°
True anomaly
33.49301°
Mean anomaly
33.4836°
Eccentric anomaly
33.4883°
Mean motion
0.25066 °/min
Orbital period
1,436.21 mins
BSTAR
0
Loading maneuver chart data...
Computing Atmospheric mass density...
Loading historical data...
Loading historical data...
Loading historical data...
Loading historical data...
Loading historical data...
Loading historical data...
Loading historical data...
Other satellites on launch #62 in the year 2014 (2014-10-16 UTC)

Documentation

Showing up to 5 results
|